Presure
119 117 115 83 75 78 74 77 75 74 78 80 84 123 78 76 77 77 81 106 81 88 83 187 159 109 107 103 114 99 101 100 97
84 93 88 110 114 107 111 100 72 72 76 75 78 76 77 74 73 76 80 78 77 87 93 87 102 111 114 100 111 101 99 98 99
114 136 89 100 109 110 78 79 80 103 82 72 73 76 78 77 82 83 74 78 79 81 84 118 85 163 156 174 117 106 114 101 101
110 109 109 110 110 110 109 103 78 78 79 87 93 86 80 81 75 76 77 82 79 83 83 87 89 89 150 150 152 151 125 118 109
112 110 113 114 104 109 102 90 92 108 109 78 78 78 80 77 78 79 112 76 78 81 92 88 83 88 94 150 149 150 137 112 123
104 104 105 107 104 104 103 110 115 103 98 102 99 83 107 109 123 109 83 77 80 113 87 82 84 92 91 99 136 133 125 97 119
104 107 104 105 106 113 106 105 103 103 111 109 104 104 105 122 133 142 121 160 154 87 141 81 86 87 90 102 107 120 132 127 133
106 105 106 108 114 107 103 104 109 107 105 111 106 106 109 108 152 108 155 117 118 142 154 144 156 148 91 88 90 94 117 96 126
97 121 103 104 101 107 111 108 108 105 106 111 105 109 108 107 104 111 107 109 108 125 78 152 120 94 147 161 132 89 95 108 118
100 93 149 120 108 102 106 104 109 107 106 104 105 110 109 108 126 105 107 107 109 117 133 130 153 157 160 150 152 152 153 129 117
100 90 90 100 101 106 126 104 106 102 105 108 109 107 105 107 110 111 109 108 135 132 123 167 164 157 159 157 159 143 155 157 121
179 113 95 95 100 97 99 145 103 107 96 103 105 107 106 106 109 107 111 131 110 114 132 125 146 169 169 136 167 177 176 165 174
180 94 105 109 119 93 97 97 104 102 98 102 103 103 108 107 107 109 108 104 106 105 112 128 118 123 127 164 173 129 124 127 161
188 178 189 172 184 164 127 95 98 101 104 107 105 105 105 103 103 103 107 106 106 111 114 124 113 112 113 130 159 162 146 134 175
185 188 179 179 171 152 106 126 179 106 93 91 101 102 108 103 106 102 105 104 104 106 107 109 119 131 120 122 137 132 169 147 176
196 193 182 173 186 174 166 178 100 183 178 114 105 97 97 106 107 103 104 106 105 105 112 105 110 125 135 114 139 138 134 135 173
195 189 193 191 177 180 175 174 170 168 132 165 145 142 134 186 109 94 97 107 101 112 104 128 104 107 114 133 117 157 127 133 138
177 183 189 137 127 125 161 179 174 177 174 172 163 127 105 104 102 156 104 96 102 103 111 105 122 118 149 111 114 118 112 141 126
186 181 178 196 204 203 174 153 196 190 174 181 175 171 179 176 129 117 170 185 85 102 93 117 105 106 111 113 115 127 115 141 125
175 206 154 184 185 159 126 118 187 196 193 167 187 175 178 182 178 91 178 191 97 196 181 95 99 103 111 103 122 111 113 116 129
Wind_Speed
39 37 35 33 29 28 26 27 24 22 21 19 20 21 14 12 9 9 10 15 12 12 12 20 19 15 15 15 16 11 11 11 9
39 37 37 36 34 32 35 36 29 26 26 22 22 21 19 17 13 13 13 13 13 14 14 15 13 18 19 15 18 16 12 12 12
41 44 40 42 36 34 41 40 37 33 32 27 28 28 25 22 21 21 16 16 16 17 17 20 16 24 24 20 21 20 22 17 16
43 43 43 41 39 36 35 37 40 38 36 38 38 34 31 28 23 22 21 23 20 21 20 21 20 18 26 25 26 26 24 24 22
50 48 47 44 45 42 46 49 48 39 39 38 37 35 35 30 30 29 32 23 22 23 25 25 21 22 22 25 29 29 28 25 25
54 52 49 49 50 48 48 44 43 47 50 47 46 42 41 39 38 39 31 27 27 33 29 26 26 28 27 27 31 30 29 24 26
56 56 53 51 50 52 49 49 50 50 49 48 47 46 45 43 41 43 37 43 41 35 38 29 31 31 32 30 30 31 31 30 31
62 58 58 57 59 54 56 54 54 54 54 52 51 50 48 45 49 43 47 40 41 42 43 40 41 40 35 33 32 30 33 27 31
57 67 61 61 58 59 58 61 58 57 56 57 55 55 52 49 47 46 47 45 45 44 34 45 40 37 41 43 39 34 35 35 33
66 58 77 71 66 62 64 61 63 62 60 60 59 57 56 55 54 50 50 48 49 48 47 44 47 46 47 44 45 44 43 38 36
71 63 60 65 65 68 75 65 65 65 65 65 62 61 60 58 57 54 54 52 51 49 50 55 54 51 51 49 49 43 46 44 41
92 80 71 67 70 68 66 84 67 69 63 67 65 64 63 61 62 57 55 57 53 54 49 51 49 57 56 46 55 52 50 49 48
98 71 80 81 82 71 73 71 73 70 66 70 68 66 66 66 64 61 57 57 56 57 55 52 54 52 50 57 58 46 46 45 48
104 100 103 98 102 100 90 76 75 75 75 76 73 72 70 67 65 62 62 59 60 58 59 57 58 56 54 52 57 56 50 46 55
108 109 106 106 103 102 80 94 107 83 73 69 75 73 76 69 68 64 66 64 62 63 60 60 61 59 60 57 53 53 61 50 57
108 112 113 110 115 110 107 108 83 112 111 89 84 76 71 74 70 69 70 71 65 64 67 62 63 62 62 59 58 57 55 55 61
111 115 116 120 117 118 115 115 113 112 95 110 99 100 96 110 77 70 67 73 69 73 65 74 61 63 63 64 59 66 57 58 57
115 115 107 105 100 97 113 122 120 120 119 117 112 97 87 87 80 100 75 73 75 68 73 68 73 68 75 63 59 60 57 63 60
123 123 123 123 125 125 123 110 131 130 125 127 122 119 119 119 99 89 111 109 63 77 64 77 69 68 68 65 64 68 62 66 63
124 126 113 130 129 124 104 99 134 132 132 120 134 126 127 127 124 78 121 122 79 109 105 69 70 70 72 64 72 67 63 64 69
Wind_Direction
239 240 239 237 237 240 235 245 241 241 246 246 256 244 240 236 242 262 283 253 299 290 304 256 257 252 251 265 262 282 290 303 316
232 234 238 240 238 234 233 241 237 235 240 242 247 246 244 239 234 249 263 270 275 285 278 293 277 259 258 276 262 287 297 300 307
243 241 235 242 248 247 238 240 240 245 239 236 240 246 247 244 251 257 250 259 269 279 284 270 290 256 260 257 267 274 271 285 289
242 240 242 242 244 243 247 246 241 243 243 248 251 249 252 254 247 248 251 261 259 269 273 281 283 287 266 265 268 272 272 274 282
248 244 244 245 241 241 240 243 245 248 250 249 249 248 250 253 255 257 266 254 260 267 271 277 279 284 283 263 269 272 272 274 275
246 245 243 243 244 244 243 244 243 246 247 247 248 253 257 259 254 254 258 262 265 259 270 274 280 281 285 279 265 269 273 283 275
248 249 249 247 247 248 248 250 249 250 250 250 249 251 254 259 257 253 259 251 252 264 259 271 273 277 279 273 272 268 270 272 276
246 247 249 250 249 246 249 248 248 250 253 253 252 251 251 255 246 260 250 262 261 258 256 260 257 260 271 277 278 278 271 280 272
250 247 245 247 247 250 247 250 250 249 251 252 256 255 256 254 254 258 262 263 264 266 262 255 262 268 262 262 269 279 280 272 273
249 250 250 248 245 246 248 247 249 252 251 253 254 255 257 257 255 257 258 259 265 267 262 266 259 259 259 265 267 269 270 267 267
251 253 251 249 249 247 248 247 246 250 251 253 253 254 255 257 257 256 259 259 258 259 264 254 256 259 260 263 264 269 271 271 274
244 250 251 251 249 251 253 248 248 245 252 252 253 254 256 257 257 257 257 255 261 263 258 262 258 254 256 264 261 258 261 269 269
243 250 248 250 250 251 252 254 252 250 250 250 251 251 251 254 257 258 257 260 262 265 265 259 264 263 262 261 256 262 264 264 272
242 243 242 245 245 248 251 251 252 253 250 249 251 250 250 250 253 256 257 257 261 263 264 260 266 267 268 263 261 263 265 263 265
240 242 244 243 243 249 248 253 248 248 253 254 255 254 251 254 251 254 254 255 255 259 260 264 263 259 263 264 262 261 264 265 265
238 241 242 245 244 244 245 244 245 246 250 249 250 254 254 255 254 254 252 254 254 254 258 257 261 260 258 265 260 261 261 262 265
243 242 240 241 244 243 244 244 246 247 247 250 249 252 253 252 250 254 257 256 259 256 255 257 257 261 262 257 264 257 263 262 263
245 245 246 252 251 251 247 244 246 246 246 246 248 250 246 247 249 249 251 255 258 255 253 255 257 256 253 262 263 262 266 261 265
246 247 245 245 243 243 246 251 241 243 247 245 246 247 249 251 253 248 252 246 245 255 252 254 256 257 256 257 259 258 263 259 262
249 244 251 246 246 253 250 251 244 241 241 250 245 246 246 247 249 244 253 255 246 247 247 253 256 257 254 258 256 258 260 261 261